Regional Weather Roundup
Issued by NWS

Home | Current Version | Previous Version | Graphics & Text | Print | Product List | Glossary On
Versions: 1 2 3 4 5 6 7 8 9 10 11 12 13 14 15 16 17 18 19 20 21 22 23 24 25 26 27 28 29 30 31 32 33 34 35 36 37 38 39 40 41 42 43 44 45 46 47 48 49 50
000
ASUS43 KOAX 272110
RWRNE

WEATHER ROUNDUP FOR NEBRASKA
NATIONAL WEATHER SERVICE OMAHA NE
400 PM CDT SUN JUL 27 2014

NOTES: SATELLITE DATA IS BEING USED TO AUGMENT CLOUD COVER ABOVE
       12000 FEET.
       "FAIR" INDICATES FEW OR NO CLOUDS BELOW 12,000 FEET WITH NO
       SIGNIFICANT WEATHER AND/OR OBSTRUCTIONS TO VISIBILITY.

  * THESE STATIONS DO NOT REPORT WEATHER SUCH AS RAIN...SNOW OR FOG.

NEZ001>004-019>022-054>056-272200-
NEBRASKA PANHANDLE

CITY           SKY/WX    TMP DP  RH WIND       PRES   REMARKS
SCOTTSBLUFF    SUNNY     83  53  35 SE6       30.30F
ALLIANCE       SUNNY     86  46  24 N3        30.29F
CHADRON        SUNNY     86  44  23 VRB3      30.26F
KIMBALL        MOSUNNY   82  46  28 S6        30.33F
SIDNEY         PTSUNNY   85  42  22 NE8       30.33F
$$

NEZ057>060-069>072-079>082-272200-
SOUTHWEST NEBRASKA

CITY           SKY/WX    TMP DP  RH WIND       PRES   REMARKS
NORTH PLATTE   SUNNY     86  47  25 N13G28    30.22F
IMPERIAL       LGT RAIN  87  46  24 NE7       30.27F
LEXINGTON      SUNNY     86  52  30 N10       30.21F
MCCOOK         SUNNY     90  46  21 N8        30.22F
OGALLALA       MOSUNNY   85  47  26 N5        30.27F
$$

NEZ005>010-023>029-035>040-094-272200-
NORTH CENTRAL NEBRASKA

CITY           SKY/WX    TMP DP  RH WIND       PRES   REMARKS
VALENTINE      SUNNY     84  49  29 N16       30.24S
AINSWORTH      SUNNY     81  47  30 NW18G24   30.23F
BROKEN BOW     SUNNY     84  54  35 N16G22    30.21F
O`NEILL        PTSUNNY   83  50  31 N17G23    30.19S
ORD            SUNNY     83  51  33 N14G23    30.18F
THEDFORD       SUNNY     85  48  28 N15G28    30.25F
$$

NEZ041-046>049-061>064-073>077-083>087-272200-
SOUTH CENTRAL NEBRASKA

CITY           SKY/WX    TMP DP  RH WIND       PRES   REMARKS
GRAND ISLAND   SUNNY     86  50  28 NW20G28   30.18S
AURORA         SUNNY     83  55  38 N15G21    30.16F
HASTINGS       SUNNY     85  51  31 N12       30.18F
HEBRON         SUNNY     84  49  28 N9G21     30.15S
HOLDREGE       SUNNY     84  51  32 N13G18    30.21S
KEARNEY *      SUNNY     88  52  29 NW17G23   30.20S
YORK           SUNNY     82  57  42 N13G20    30.15F
$$

NEZ011>018-030>034-042>045-272200-
NORTHEAST NEBRASKA

CITY           SKY/WX    TMP DP  RH WIND       PRES   REMARKS
NORFOLK        MOSUNNY   81  56  42 NW15G24   30.15R
ALBION         SUNNY     79  56  45 N14G22    30.17S
BLAIR          MOSUNNY   78  55  44 NW18G28   30.10S
COLUMBUS *     MOSUNNY   81  57  44 N15G23    30.15S
FREMONT        SUNNY     82  56  41 NW22      30.12F
WAYNE          MOSUNNY   77  59  54 NW15G24   30.14S
$$

NEZ050>053-065>068-078-088>093-272200-
SOUTHEAST NEBRASKA

CITY           SKY/WX    TMP DP  RH WIND       PRES   REMARKS
LINCOLN        MOSUNNY   87  57  35 NW21      30.12F
OMAHA EPPLEY   MOSUNNY   83  55  38 NW23G31   30.08F
BEATRICE       SUNNY     83  57  40 NW23      30.12F
NEBRASKA CITY  SUNNY     82  56  41 N20       30.09S
PLATTSMOUTH    SUNNY     82  54  37 NW16G25   30.09S
$$

NEZ044-045-051>053-067-272200-
OMAHA AREA

CITY           SKY/WX    TMP DP  RH WIND       PRES   REMARKS
OMAHA EPPLEY   MOSUNNY   83  55  38 NW23G31   30.08F
BLAIR          MOSUNNY   78  55  44 NW18G28   30.10S
FREMONT        SUNNY     82  56  41 NW22      30.12F
MILLARD        MOSUNNY   82  57  43 N12G30    30.09S
OFFUTT AFB     SUNNY     82  58  42 NW16G22   30.08S
PLATTSMOUTH    SUNNY     82  54  37 NW16G25   30.09S
WAHOO          FAIR      81  57  43 N16G25    30.12S
$$



USA.gov is the U.S. government's official web portal to all federal, state and local government web resources and services.